This is the latest recevied weather packets stored in our database for station/object KN6WGU. If no packets are shown the sender has not sent any weather packets the latest 10 day(s).
| Time | Temp. | Humidity | Pressure | Rain* | Wind** | Luminosity | Snow |
|---|---|---|---|---|---|---|---|
| 1788373528 | 33.89° C | 59% | 1008.6 hPa | 0 mm | - | 577 W/m² | - |
| 1788373224 | 33.89° C | 59% | 1008.7 hPa | 0 mm | - | 578 W/m² | - |
| 1788372920 | 33.89° C | 60% | 1008.8 hPa | 0 mm | - | 459 W/m² | - |
| 1788372614 | 33.89° C | 61% | 1008.7 hPa | 0 mm | - | 558 W/m² | - |
| 1788372309 | 33.89° C | 59% | 1008.7 hPa | 0 mm | - | 570 W/m² | - |
| 1788372005 | 33.89° C | 61% | 1008.7 hPa | 0 mm | - | 567 W/m² | - |
| 1788371705 | 33.89° C | 61% | 1008.7 hPa | 0 mm | - | 575 W/m² | - |
| 1788371401 | 33.89° C | 60% | 1008.9 hPa | 0 mm | - | 564 W/m² | - |
| 1788371097 | 33.89° C | 60% | 1009.1 hPa | 0 mm | - | 539 W/m² | - |
| 1788370792 | 33.33° C | 62% | 1008.9 hPa | 0 mm | - | 572 W/m² | - |
| 1788370492 | 32.78° C | 65% | 1008.9 hPa | 0 mm | - | 560 W/m² | - |
| 1788370187 | 33.33° C | 62% | 1009.1 hPa | 0 mm | - | 575 W/m² | - |
| 1788369886 | 32.78° C | 66% | 1009.2 hPa | 0 mm | - | 164 W/m² | - |
| 1788369582 | 32.22° C | 62% | 1009.2 hPa | 0 mm | - | 246 W/m² | - |
| 1788369277 | 32.22° C | 63% | 1009.5 hPa | 0 mm | - | 237 W/m² | - |
| 1788368973 | 32.22° C | 62% | 1009.7 hPa | 0 mm | - | 141 W/m² | - |
| 1788368668 | 32.78° C | 63% | 1009.6 hPa | 0 mm | - | 190 W/m² | - |
| 1788368363 | 32.22° C | 62% | 1009.7 hPa | 0 mm | - | 235 W/m² | - |
| 1788368063 | 32.22° C | 63% | 1009.5 hPa | 0 mm | - | 314 W/m² | - |
| 1788367757 | 31.67° C | 63% | 1009.6 hPa | 0 mm | - | 223 W/m² | - |
| 1788367452 | 31.67° C | 63% | 1009.6 hPa | 0 mm | - | 163 W/m² | - |
| 1788367152 | 31.67° C | 63% | 1009.7 hPa | 0 mm | - | 163 W/m² | - |
| 1788366847 | 32.22° C | 63% | 1009.7 hPa | 0 mm | - | 172 W/m² | - |
| 1788366544 | 32.22° C | 64% | 1009.6 hPa | 0 mm | - | 114 W/m² | - |
| 1788366240 | 31.67° C | 63% | 1009.5 hPa | 0 mm | - | 105 W/m² | - |
* Rain latest hour (hover to see other rain measurements)
** Current wind speed in m/s (hover to see current wind gust speed)